Tracking 28799 objects as of 18-Apr-2024
HD Live streaming from Space Station
objects crossing your sky now

STARLINK-4353

Track STARLINK-4353 now!
10-day predictions
STARLINK-4353 is classified as:


NORAD ID: 53214
Int'l Code: 2022-084AB
Perigee: 568.8 km
Apogee: 571.5 km
Inclination: 97.7 °
Period: 95.9 minutes
Semi major axis: 6941 km
RCS: Unknown
Launch date: July 22, 2022
Source: United States (US)
Launch site: AIR FORCE WESTERN TEST RANGE (AFWTR)
Your satellite tracking list
Your tracking list is empty




NASA's NSSDC Master Catalog

Two Line Element Set (TLE):
1 53214U 22084AB  24108.89774835 -.00005695  00000-0 -43931-3 0  9997
2 53214  97.6543 170.5941 0001947  97.3964 262.7482 15.01247454 95678
Source of the keplerian elements: AFSPC